Home > Weather > Palm Springs > Past weeks

Flag for USA Past Weather in Palm Springs, California, USA — Yesterday and Last 2 Weeks

Now
109 °F

Sunny.


Feels Like: 108 °F
Forecast: 86 / 110 °F
Wind: 9 mph from Southeast

Location: Palm Springs Regional Airport

Current Time: Jun 29, 2016 at 4:38:03 PM

Latest Report: Jun 29, 2016 at 3:53 PM


Visibility: 10 mi

Pressure: 29.72 "Hg

Humidity: 17%

Dew Point: 55 °F

Location of Palm SpringsLocation

Past Weather in Palm Springs — Graph

°F

Palm Springs Temperature Yesterday

Maximum temperature yesterday: 115 °F (at 4:53 PM)
Minimum temperature yesterday: 89 °F (at 1:53 AM)
Average temperature yesterday: 101 °F

High & Low Weather Summary for the Past Weeks

 TemperatureHumidityPressure
High122 °F (Jun 20, 1:53 PM)53% (Jun 15, 3:53 AM)29.95 "Hg (Jun 15, 3:53 AM)
Low67 °F (Jun 16, 5:53 AM)4% (Jun 18, 12:53 PM)29.63 "Hg (Jun 24, 5:53 PM)
Average95 °F23%29.80 "Hg
* Reported Jun 14 2:53 PM — Jun 29 2:53 PM, Palm Springs, Weather by CustomWeather, © 2016

Note: Actual official high and low records may vary slightly from our data, if they occured in-between our weather recording intervals... More about our weather records

Advertising

Palm Springs Weather History for the Previous 24 Hours

Scroll right to see more
 ConditionsComfort  
Time TempWeatherWind HumidityBarometerVisibility
2:53 PM
Wed, Jun 29
108 °FScattered clouds.8 mph16%29.76 "Hg10 mi
1:53 PM106 °FScattered clouds.6 mph19%29.79 "Hg10 mi
12:53 PM105 °FScattered clouds.6 mph20%29.82 "Hg10 mi
11:53 AM100 °FScattered clouds.6 mph28%29.85 "Hg10 mi
10:53 AM95 °FSunny.3 mph35%29.88 "Hg10 mi
9:53 AM93 °FSunny.7 mph38%29.90 "Hg10 mi
8:53 AM91 °FSunny.12 mph39%29.89 "Hg10 mi
7:53 AM90 °FSunny.13 mph39%29.86 "Hg10 mi
6:53 AM89 °FSunny.5 mph36%29.80 "Hg10 mi
5:53 AM87 °FClear.No wind37%29.78 "Hg10 mi
4:53 AM87 °FClear.3 mph40%29.76 "Hg10 mi
3:53 AM91 °FClear.No wind31%29.75 "Hg10 mi
2:53 AM89 °FClear.3 mph35%29.75 "Hg10 mi
1:53 AM91 °FClear.5 mph33%29.76 "Hg10 mi
12:53 AM93 °FClear.3 mph31%29.76 "Hg10 mi
11:53 PM
Tue, Jun 28
97 °FClear.6 mph24%29.76 "Hg10 mi
10:53 PM99 °FClear.15 mph23%29.75 "Hg10 mi
9:53 PM100 °FClear.18 mph21%29.75 "Hg10 mi
8:53 PM102 °FScattered clouds.18 mph20%29.72 "Hg10 mi
7:53 PM107 °FSunny.17 mph14%29.72 "Hg10 mi
6:53 PM110 °FSunny.16 mph14%29.70 "Hg10 mi
5:53 PM113 °FSunny.17 mph12%29.71 "Hg10 mi
4:53 PM115 °FSunny.17 mph12%29.72 "Hg10 mi
Weather by CustomWeather, © 2016

See weather overviewHow to use our weather pages